GFSFLT1_700_rhum_057.txt.gz
RH
25 17 20 34 36 37 41 57 97 100 99 99 100 100 99 92 80 78 74 69 64 57 55 60 59 75 69 65 72 72 56 44
31 30 32 34 39 40 35 34 44 52 49 59 68 63 70 68 69 69 64 59 56 54 57 65 74 79 72 70 66 65 59 44
39 37 36 37 37 42 46 40 46 40 42 47 44 42 48 47 45 46 53 54 53 51 60 73 73 71 69 62 66 68 61 55
31 34 34 36 35 35 38 51 53 39 30 26 27 31 38 40 40 42 43 44 47 64 69 63 57 64 64 63 70 81 78 71
32 33 31 30 38 39 39 43 42 48 45 43 40 35 34 34 37 41 52 54 61 66 71 67 71 77 78 79 87 96 93 94
25 28 27 29 33 34 37 42 45 49 47 49 54 53 54 54 59 64 68 69 68 76 77 82 84 84 90 95 96 98 97 99
30 40 32 29 30 33 35 37 44 48 50 52 56 56 61 62 66 68 66 67 73 79 84 84 91 89 88 99 96 99 99 93
48 47 37 29 28 28 33 35 38 41 44 48 50 54 63 66 69 75 77 78 77 81 91 95 89 88 93 98 96 87 91 100
46 42 40 36 36 31 31 35 40 43 46 48 50 55 60 73 69 76 76 76 78 84 94 92 99 97 87 82 92 99 91 100
46 46 48 49 50 47 36 33 36 44 49 56 59 72 69 82 66 68 66 72 81 87 95 78 98 91 83 77 80 86 83 93
47 49 52 53 55 56 60 61 51 46 50 52 61 67 73 82 89 84 80 88 95 96 79 88 77 64 72 79 78 84 84 89
46 51 58 56 57 59 58 59 66 65 67 64 65 66 81 98 93 91 74 87 95 76 79 57 59 61 66 76 79 81 97 99
30 35 49 58 55 58 57 63 66 71 70 62 86 99 94 100 96 95 72 69 55 58 57 54 48 58 68 80 90 91 100 82
35 24 19 47 52 62 69 72 79 75 84 91 74 86 77 78 98 87 57 48 56 52 48 50 58 69 86 89 54 98 100 99
32 29 25 21 33 58 72 83 94 74 68 73 57 68 70 69 58 62 54 55 52 55 60 64 64 54 64 73 85 76 100 100
35 38 31 22 21 23 39 51 46 46 59 56 47 47 51 50 50 49 50 54 58 66 68 40 32 35 41 57 64 71 75 66
37 41 38 49 38 21 30 25 32 43 45 38 39 38 38 45 50 53 58 61 70 44 28 25 30 34 36 42 51 58 58 57
36 37 40 52 58 46 22 34 32 31 35 37 38 40 48 61 56 62 64 49 28 22 24 27 28 32 39 46 51 48 42 35
35 34 36 37 40 60 48 43 38 37 38 38 47 57 62 59 64 48 30 24 23 25 26 28 32 38 45 43 38 32 26 22

GFSFLT1_700_rhum_060.txt.gz
RH
30 23 23 33 26 37 64 98 99 98 97 98 100 100 100 100 100 100 90 90 72 62 62 65 57 54 59 68 64 60 63 61
30 28 33 35 35 29 35 59 80 79 94 98 98 99 99 99 98 95 79 74 74 64 59 56 51 57 77 74 68 67 73 74
34 34 34 31 35 39 34 28 35 42 58 81 98 100 100 99 94 78 66 75 68 58 57 57 56 68 79 68 65 73 82 82
32 33 33 30 32 34 41 35 27 28 32 41 54 65 75 75 64 60 67 69 58 56 55 53 57 72 68 66 66 76 84 89
35 32 29 28 32 33 35 37 39 32 29 31 30 35 36 40 54 58 58 53 51 52 51 56 66 61 64 70 80 83 89 92
34 28 29 30 31 32 33 37 41 42 40 38 33 33 30 32 35 37 39 42 46 47 55 67 64 71 82 92 91 91 99 98
49 44 33 34 34 34 36 35 38 44 47 46 46 49 49 49 49 50 54 57 59 64 66 71 80 82 87 94 96 96 93 95
38 48 50 33 31 32 33 33 34 36 40 44 47 52 55 55 58 59 61 64 65 64 72 77 82 92 97 99 99 90 88 90
40 41 44 41 42 32 32 32 34 36 38 41 44 50 57 62 69 71 77 75 76 78 78 82 91 100 99 98 78 85 93 94
38 44 43 45 49 50 42 36 33 36 42 44 46 48 51 60 66 76 75 72 84 89 81 79 90 90 99 84 81 79 84 81
39 46 47 47 48 51 54 57 58 44 38 40 47 54 54 61 70 88 79 90 87 72 74 97 99 85 87 75 73 80 74 70
32 39 43 49 51 53 54 57 63 62 56 58 57 52 53 58 81 88 94 99 92 88 97 98 84 74 69 68 60 62 71 82
40 42 40 46 52 51 54 57 60 62 66 66 75 94 92 98 100 85 97 100 88 88 91 74 57 55 50 56 61 73 87 98
28 32 33 24 42 49 51 53 57 65 66 68 97 78 76 72 93 90 79 59 68 70 64 57 54 53 55 62 72 92 99 71
30 31 31 32 23 23 31 52 51 59 62 80 68 74 62 62 73 97 72 64 51 55 57 56 58 60 66 76 43 56 56 88
31 31 32 33 29 20 21 21 28 44 56 64 64 65 61 59 70 72 58 54 53 54 59 63 67 75 58 30 30 40 63 80
33 32 35 36 35 34 35 26 34 43 51 60 62 53 50 56 48 50 51 56 63 64 64 71 66 34 27 32 35 41 49 56
34 34 36 36 35 33 31 32 32 39 42 47 48 47 44 46 50 52 65 75 70 71 67 36 25 26 29 33 40 50 56 57
32 35 36 37 33 33 34 33 32 43 49 39 40 42 43 45 49 59 67 65 66 39 27 24 27 31 35 42 50 51 48 40

GFSFLT1_700_rhum_063.txt.gz
RH
28 30 27 30 31 28 84 98 100 100 99 100 100 99 100 100 99 98 99 97 97 88 70 68 60 56 56 55 69 65 62 68
25 30 31 30 34 22 42 78 80 97 98 100 100 100 100 100 99 96 95 98 86 85 74 66 58 60 60 65 70 61 63 72
24 31 33 27 34 31 20 30 56 80 92 98 99 100 100 100 100 99 100 96 88 83 78 65 58 56 64 68 71 65 68 74
26 30 33 29 34 32 31 28 21 27 47 79 86 98 99 100 100 100 100 99 87 81 76 63 54 52 54 65 78 72 75 79
22 29 29 26 33 32 32 33 33 26 21 26 31 49 63 92 99 100 90 95 89 74 67 59 56 52 55 71 76 73 79 84
20 23 27 30 29 32 30 32 33 34 34 29 29 31 34 51 60 72 65 68 70 62 58 60 56 55 58 69 72 80 88 97
26 28 30 29 28 30 30 27 28 32 35 38 38 34 33 35 39 45 56 61 62 53 53 55 51 55 66 70 82 91 97 100
28 23 25 27 26 28 29 29 28 29 31 35 41 44 46 44 40 39 39 40 43 45 46 52 57 64 74 83 91 97 99 97
38 28 29 36 35 30 29 30 30 31 33 34 38 46 49 51 55 57 58 60 61 62 68 76 82 85 89 92 99 99 94 91
39 36 43 46 49 49 48 43 33 32 33 38 40 42 48 57 65 68 69 72 73 74 78 82 85 90 100 100 97 98 80 77
36 35 39 43 46 48 51 54 52 53 41 35 39 44 48 58 66 72 83 86 88 96 97 93 93 88 97 98 89 95 77 65
31 36 37 41 47 49 50 52 55 54 52 56 45 43 52 60 66 68 78 99 98 99 96 93 88 94 91 93 80 78 67 61
28 31 32 38 42 48 50 53 56 58 55 56 78 64 73 92 94 92 85 99 91 97 84 80 89 98 99 80 66 74 68 66
31 30 34 30 32 29 30 49 53 59 57 56 59 90 99 91 77 94 82 86 87 86 86 70 82 85 65 63 52 56 63 75
31 31 31 30 30 32 28 22 24 47 54 53 55 75 63 79 82 77 86 93 78 77 81 80 71 66 63 63 60 68 75 84
34 32 34 32 32 33 35 25 23 22 30 41 48 64 72 68 61 67 76 87 83 79 71 60 57 60 65 66 71 78 71 75
35 34 32 32 32 34 34 31 25 29 33 33 39 47 56 62 57 57 62 66 61 59 62 56 58 66 69 73 78 52 28 31
37 34 34 34 33 34 35 34 33 32 30 31 36 39 50 58 60 54 52 53 58 60 59 63 65 74 77 72 35 29 32 35
36 32 30 32 34 35 34 35 35 37 37 39 53 53 49 55 56 53 53 55 57 66 69 73 84 78 40 28 29 33 36 41

GFSFLT1_700_rhum_069.txt.gz
RH
24 28 30 27 31 28 27 62 100 100 99 99 100 100 100 100 100 100 93 85 85 95 93 87 87 82 74 75 69 65 67 59
25 29 30 26 31 30 22 63 98 100 100 98 100 98 99 98 100 100 97 94 98 100 99 99 98 90 87 96 83 67 69 72
22 24 30 25 30 29 28 33 81 86 86 98 98 100 100 100 100 100 98 99 99 100 100 99 98 93 94 94 89 68 66 77
33 20 24 26 29 30 29 28 40 64 75 91 95 100 100 100 99 100 100 100 99 99 99 100 94 88 96 98 92 80 64 74
43 27 22 24 24 28 29 30 27 24 35 54 96 98 98 98 100 100 100 99 99 98 99 98 98 98 97 97 96 81 64 63
40 36 22 23 20 24 25 28 30 27 25 31 58 90 100 99 100 100 100 98 99 98 98 98 98 96 94 99 88 71 75 62
36 39 20 20 17 20 23 25 29 31 31 28 26 34 63 96 96 98 99 98 99 98 99 99 99 97 94 98 78 75 67 62
33 36 18 18 18 19 22 26 27 30 32 35 34 30 27 40 71 94 96 99 99 100 100 100 93 89 88 90 73 70 67 62
30 35 30 17 20 24 24 26 28 29 32 36 38 39 37 31 28 35 44 66 84 98 94 96 90 79 79 79 78 77 74 57
29 31 34 32 22 24 26 28 28 29 31 34 36 40 42 44 40 36 35 40 47 56 56 63 65 69 73 80 80 75 66 54
30 31 32 36 32 35 33 38 47 50 42 35 35 38 41 46 49 49 49 44 41 43 48 51 54 61 69 76 77 60 48 55
30 31 34 36 39 41 39 40 44 47 50 53 50 43 40 40 44 50 54 55 59 53 46 47 52 56 58 58 49 50 58 89
29 30 34 37 40 41 43 45 46 48 52 53 56 58 58 60 54 51 50 52 62 68 65 71 49 48 49 52 59 69 91 90
33 30 29 29 34 36 31 32 37 45 48 47 53 56 64 60 59 61 64 67 75 71 84 97 100 98 100 100 98 100 99 99
33 32 32 34 30 30 33 32 30 28 29 25 29 37 48 57 62 68 74 78 73 78 86 100 97 92 100 100 100 99 99 100
40 36 36 35 33 32 32 33 33 34 20 24 23 24 26 39 54 56 68 84 79 89 87 100 90 83 96 100 100 98 94 88
41 41 40 38 34 33 33 34 33 34 24 24 30 30 19 23 30 36 42 58 68 79 84 77 82 98 98 91 92 84 86 92
34 34 36 40 39 34 34 34 35 35 35 33 34 35 37 32 32 32 39 55 62 63 73 80 85 88 90 75 77 80 79 69
38 36 36 39 41 36 36 35 34 37 37 36 36 38 41 43 44 40 43 48 58 60 62 68 70 70 67 69 69 74 80 86